Pagosa Springs, CO

9:54 AM MDT on June 27, 2017 (GMT -0600)
Pagosa Springs

Weather History for KPSO - November, 2012

Change the Weather History Date:

Sunday, November 4, 2012

  Actual Average (KE33) Record (KE33)
Temperature  
Mean Temperature 41 °F -  
Max Temperature 59 °F 46 °F 64 °F (2001)
Min Temperature 23 °F 29 °F 21 °F (2003)
Degree Days  
Heating Degree Days 24    
Moisture  
Dew Point 8 °F    
Average Humidity 31    
Maximum Humidity 57    
Minimum Humidity 11    
Precipitation  
Precipitation 0.00 in - - ()
Sea Level Pressure  
Sea Level Pressure 30.35 in    
Wind  
Wind Speed 1 mph (SW)    
Max Wind Speed 10 mph    
Max Gust Speed -    
Visibility 10 miles    
Events Thunderstorm    
Averages and records for this station are not official NWS values.
T = Trace of Precipitation, MM = Missing Value Source: NWS Daily Summary

Daily Weather History Graph

Daily Weather History Graph

Search for Another Location

Airport or City:

Trip Planner

Search our weather history database for the weather conditions in past years. The results will help you decide how hot, cold, wet, or windy it might be!

Date:

Astronomy

Nov. 04, 2012 Rise Set
Actual Time 6:36 AM MST 5:06 PM MST
Civil Twilight 6:09 AM MST 5:33 PM MST
Nautical Twilight 5:38 AM MST 6:04 PM MST
Astronomical Twilight 5:07 AM MST 6:35 PM MST
Moon 9:48 PM MST (11/4) 11:20 AM MST (11/4)
Length of Visible Light 11h 24m
Length of Day
10h 30m
Waning Gibbous, 71% of the Moon is Illuminated
Nov 4
Waning Gibbous
Nov 6
Last Quarter
Nov 13
New
Nov 20
First Quarter
Nov 28
Full

Hourly Weather History & Observations

Time (MST) Temp. Windchill Dew Point Humidity Pressure Visibility Wind Dir Wind Speed Gust Speed Precip Events Conditions
12:15 AM 31.3 °F - 9.1 °F 40% 30.32 in 10.0 mi Calm Calm - N/A   Clear
12:35 AM 29.3 °F - 8.2 °F 41% 30.32 in 10.0 mi Calm Calm - N/A   Clear
12:55 AM 29.7 °F - 10.8 °F 45% 30.33 in 10.0 mi Calm Calm - N/A   Clear
1:15 AM 28.2 °F - 9.7 °F 46% 30.33 in 10.0 mi Calm Calm - N/A   Clear
1:35 AM 26.6 °F - 9.0 °F 47% 30.32 in 10.0 mi Calm Calm - N/A   Clear
1:55 AM 30.6 °F - 9.9 °F 42% 30.33 in 10.0 mi Calm Calm - N/A   Clear
1:15 AM 26.8 °F - 9.3 °F 48% 30.32 in 10.0 mi Calm Calm - N/A   Clear
1:35 AM 28.0 °F - 11.3 °F 50% 30.32 in 10.0 mi Calm Calm - N/A   Clear
1:55 AM 30.4 °F - 11.1 °F 45% 30.33 in 10.0 mi Calm Calm - N/A   Clear
2:15 AM 24.8 °F - 8.8 °F 51% 30.33 in 10.0 mi Calm Calm - N/A   Clear
2:35 AM 28.0 °F - 9.7 °F 46% 30.33 in 10.0 mi Calm Calm - N/A   Clear
2:55 AM 26.8 °F - 9.1 °F 47% 30.33 in 10.0 mi Calm Calm - N/A   Clear
3:15 AM 26.4 °F - 10.6 °F 51% 30.33 in 10.0 mi Calm Calm - N/A   Clear
3:35 AM 27.5 °F - 10.9 °F 50% 30.33 in 10.0 mi Calm Calm - N/A   Clear
3:55 AM 25.7 °F - 10.6 °F 53% 30.34 in 10.0 mi Calm Calm - N/A   Clear
4:15 AM 26.1 °F - 9.5 °F 50% 30.34 in 10.0 mi Calm Calm - N/A   Clear
4:35 AM 25.0 °F - 11.1 °F 56% 30.34 in 10.0 mi Calm Calm - N/A   Clear
4:55 AM 26.8 °F - 10.9 °F 51% 30.34 in 10.0 mi Calm Calm - N/A   Clear
5:15 AM 25.9 °F - 10.4 °F 52% 30.34 in 10.0 mi Calm Calm - N/A   Clear
5:35 AM 26.8 °F - 11.5 °F 53% 30.34 in 10.0 mi Calm Calm - N/A   Clear
5:55 AM 23.9 °F - 10.6 °F 57% 30.35 in 10.0 mi Calm Calm - N/A   Clear
6:15 AM 25.3 °F - 11.1 °F 55% 30.35 in 10.0 mi Calm Calm - N/A   Clear
6:35 AM 25.7 °F - 11.3 °F 55% 30.36 in 10.0 mi Calm Calm - N/A   Clear
6:55 AM 25.9 °F - 11.3 °F 54% 30.36 in 10.0 mi Calm Calm - N/A   Clear
7:15 AM 26.8 °F - 11.7 °F 53% 30.36 in 10.0 mi Calm Calm - N/A   Clear
7:35 AM 30.7 °F - 12.2 °F 46% 30.38 in 10.0 mi Calm Calm - N/A   Clear
7:55 AM 34.3 °F - 11.8 °F 39% 30.38 in 10.0 mi Calm Calm - N/A   Clear
8:15 AM 37.6 °F - 11.3 °F 34% 30.38 in 10.0 mi Calm Calm - N/A   Clear
8:35 AM 40.3 °F - 11.3 °F 31% 30.38 in 10.0 mi Calm Calm - N/A   Clear
8:55 AM 43.0 °F - 10.8 °F 27% 30.38 in 10.0 mi Calm Calm - N/A   Clear
9:15 AM 45.0 °F - 10.6 °F 25% 30.38 in 10.0 mi Calm Calm - N/A   Clear
9:35 AM 46.8 °F - 10.0 °F 23% 30.38 in 10.0 mi SSW 3.5 mph - N/A   Clear
9:55 AM 48.4 °F - 10.2 °F 21% 30.38 in 10.0 mi SSW 4.6 mph - N/A   Clear
10:15 AM 49.6 °F - 9.7 °F 20% 30.38 in 10.0 mi SSW 3.5 mph - N/A   Clear
10:35 AM 51.1 °F - 9.7 °F 19% 30.38 in 10.0 mi South 4.6 mph - N/A   Clear
10:55 AM 53.1 °F - 9.5 °F 17% 30.37 in 10.0 mi South 4.6 mph - N/A   Clear
11:15 AM 53.8 °F - 8.6 °F 16% 30.36 in 10.0 mi SW 5.8 mph - N/A   Clear
11:35 AM 55.2 °F - 7.7 °F 15% 30.36 in 10.0 mi South 5.8 mph - N/A   Clear
11:55 AM 55.9 °F - 6.6 °F 14% 30.34 in 10.0 mi SSW 6.9 mph - N/A   Clear
12:15 PM 56.8 °F - 5.2 °F 13% 30.33 in 10.0 mi SSW 3.5 mph - N/A   Clear
12:35 PM 57.4 °F - 3.6 °F 11% 30.33 in 10.0 mi WSW 4.6 mph - N/A   Clear
12:55 PM 58.1 °F - 3.6 °F 11% 30.32 in 10.0 mi West 6.9 mph - N/A   Clear
1:15 PM 59.0 °F - 3.2 °F 11% 30.32 in 10.0 mi WSW 6.9 mph - N/A   Clear
1:35 PM 58.6 °F - 4.1 °F 11% 30.31 in 10.0 mi SW 9.2 mph - N/A   Clear
1:55 PM 58.5 °F - 3.7 °F 11% 30.31 in 10.0 mi SSW 9.2 mph - N/A   Clear
2:15 PM 57.7 °F - 4.8 °F 12% 30.31 in 10.0 mi WSW 10.4 mph - N/A   Clear
2:35 PM 58.1 °F - 4.6 °F 12% 30.31 in 10.0 mi West 10.4 mph - N/A   Clear
2:55 PM 58.1 °F - 4.6 °F 12% 30.31 in 10.0 mi WSW 8.1 mph - N/A   Clear
3:15 PM 58.1 °F - 4.1 °F 11% 30.31 in 10.0 mi SW 8.1 mph - N/A   Clear
3:35 PM 58.1 °F - 2.8 °F 11% 30.31 in 10.0 mi SW 10.4 mph - N/A   Clear
3:55 PM 57.2 °F - 3.2 °F 11% 30.31 in 10.0 mi SW 9.2 mph - N/A   Clear
4:15 PM 56.7 °F - 3.6 °F 12% 30.32 in 10.0 mi WSW 6.9 mph - N/A   Clear
4:35 PM 55.8 °F - 2.8 °F 12% 30.33 in 10.0 mi WSW 4.6 mph - N/A   Clear
4:55 PM 54.9 °F - 3.7 °F 13% 30.33 in 10.0 mi SW 4.6 mph - N/A   Clear
5:15 PM 50.5 °F - 5.2 °F 16% 30.34 in 10.0 mi Calm Calm - N/A   Clear
5:35 PM 43.7 °F - 5.0 °F 20% 30.35 in 10.0 mi Calm Calm - N/A   Clear
5:55 PM 41.5 °F - 5.9 °F 23% 30.36 in 10.0 mi Calm Calm - N/A   Clear
6:15 PM 41.2 °F - 6.8 °F 24% 30.36 in 10.0 mi Calm Calm - N/A   Clear
6:35 PM 39.6 °F - 6.8 °F 26% 30.37 in 10.0 mi Calm Calm - N/A   Clear
6:55 PM 41.2 °F - 7.7 °F 25% 30.38 in 10.0 mi Calm Calm - N/A Thunderstorm Clear
7:15 PM 41.2 °F - 7.7 °F 25% 30.38 in 10.0 mi Calm Calm - N/A   Clear
7:35 PM 37.6 °F 35.1 °F 7.5 °F 29% 30.38 in 10.0 mi WNW 3.5 mph - N/A   Clear
7:55 PM 39.6 °F - 7.7 °F 27% 30.38 in 10.0 mi Calm Calm - N/A   Clear
8:15 PM 38.1 °F 35.7 °F 7.5 °F 28% 30.39 in 10.0 mi East 3.5 mph - N/A   Clear
8:35 PM 37.9 °F - 8.4 °F 30% 30.38 in 10.0 mi Calm Calm - N/A   Clear
8:55 PM 38.3 °F - 7.2 °F 28% 30.39 in 10.0 mi Calm Calm - N/A   Clear
9:15 PM 35.6 °F - 8.1 °F 32% 30.38 in 10.0 mi Calm Calm - N/A   Clear
9:35 PM 34.9 °F - 7.9 °F 32% 30.38 in 10.0 mi Calm Calm - N/A   Clear
9:55 PM 33.6 °F - 7.3 °F 33% 30.39 in 10.0 mi Calm Calm - N/A   Clear
10:15 PM 33.3 °F - 7.9 °F 35% 30.39 in 10.0 mi Calm Calm - N/A   Clear
10:35 PM 36.1 °F - 7.5 °F 30% 30.39 in 10.0 mi Calm Calm - N/A   Clear
10:55 PM 34.2 °F - 8.1 °F 34% 30.39 in 10.0 mi Calm Calm - N/A   Clear